Location: *
(51.5000°N, 0.1100°W)
Time: 16:48:24
(UTC+00:00)

Cosmos 836 Rocket - Pass Details

Date: 25 May 2024
Orbit: 756 x 775 km, 74.1° (Epoch: 16 June)

Event Time Altitude Azimuth Distance (km) Brightness Sun altitude
Rises 03:02:29 0° 334° (NNW) 3,227 8.0 -6.9°
Reaches altitude 10° 03:04:52 10° 333° (NNW) 2,296 7.2 -6.7°
Maximum altitude 03:10:03 76° 248° (WSW) 785 4.5 -6.1°
Drops below altitude 10° 03:15:13 10° 164° (SSE) 2,282 6.7 -5.6°
Sets 03:17:34 0° 163° (SSE) 3,204 7.4 -5.3°
